Wind_Speed
15 16 18 19 21 22 22 23 24 24 23 22 22 22 23 23 25 26 27 28 29 29 30 30 30 30 30 30 29 29 29 28 28 28 28 28 29 29 30 31 32 33 34 34
15 16 17 18 19 20 20 22 23 22 22 21 20 21 22 22 23 24 24 25 26 27 27 27 27 27 27 27 27 26 26 26 26 27 27 27 27 28 29 29 30 31 31 31
15 16 16 17 17 18 19 19 21 22 21 20 20 21 21 21 22 22 23 23 24 24 25 25 25 25 25 25 24 24 24 25 25 25 25 26 26 27 27 28 29 28 28 28
15 15 16 15 17 18 19 20 20 20 20 19 19 20 20 20 21 22 22 22 22 23 23 23 23 23 23 23 22 23 23 24 24 24 24 25 25 26 26 26 26 26 26 26
15 15 15 15 16 17 18 19 19 19 19 19 19 20 20 20 20 20 21 21 21 21 21 21 21 21 21 21 21 22 22 23 23 23 23 23 24 24 24 24 24 24 24 23
15 16 15 14 15 16 17 18 19 19 18 19 19 19 19 19 19 19 19 19 20 20 20 20 20 20 20 20 20 21 21 21 22 22 22 23 22 23 23 23 23 23 23 23
16 16 15 14 16 16 17 17 17 18 19 19 19 19 19 19 19 19 19 19 19 19 19 19 19 19 19 20 20 20 20 20 21 21 22 22 22 22 22 22 22 22 22 22
16 16 15 15 15 16 16 16 17 17 18 19 19 19 19 19 19 19 19 18 18 18 18 18 18 19 19 19 19 19 19 20 21 21 21 21 21 22 22 22 22 22 22 22
16 16 16 17 17 17 17 17 17 17 18 18 19 19 19 19 19 19 18 18 17 17 17 17 17 18 18 18 18 19 19 19 20 20 20 20 20 20 21 21 21 22 22 23
17 17 18 18 18 18 18 19 19 19 19 19 19 19 20 19 19 19 19 18 17 17 17 17 17 17 18 18 18 18 18 18 19 19 19 19 20 20 21 21 22 23 23 24
19 19 19 19 19 19 19 20 20 20 20 20 20 20 20 20 20 20 19 19 18 18 18 18 18 18 18 18 19 19 18 18 19 19 20 20 21 21 22 22 23 24 24 25
20 20 20 20 20 21 20 21 21 22 22 22 21 21 21 21 20 20 20 20 20 19 19 19 19 19 19 19 19 19 19 19 20 20 21 21 22 22 23 24 24 25 25 26
21 21 21 20 21 22 22 22 22 23 23 23 23 22 22 22 22 22 21 21 21 21 20 20 20 20 20 20 20 20 20 21 21 21 22 22 23 24 24 25 25 26 27 28
22 22 22 22 22 23 23 23 23 24 24 24 24 24 23 23 23 23 23 23 22 22 22 21 21 21 21 21 22 22 22 22 22 23 23 24 24 25 26 26 27 28 28 29
22 22 22 23 23 24 24 24 24 24 24 24 25 25 24 24 24 24 24 24 24 23 23 22 22 23 23 23 23 23 24 24 24 24 25 25 26 26 27 28 28 29 30 31
22 22 22 22 23 23 24 25 25 25 25 25 25 25 26 26 26 26 25 25 24 24 24 24 23 23 24 24 24 24 25 25 25 26 26 27 27 28 29 29 30 30 31 32
22 22 22 22 23 23 24 24 25 25 26 26 26 26 26 26 26 26 26 26 25 25 25 25 24 24 24 25 25 25 26 26 27 27 28 28 28 29 29 30 31 32 32 33
22 22 22 22 22 23 23 24 24 25 26 26 26 26 26 27 27 27 27 27 26 26 26 26 26 25 26 26 26 26 27 27 28 28 28 29 29 30 30 31 32 33 33 34
22 22 22 22 22 22 23 23 23 24 24 25 26 26 26 26 27 27 27 27 27 27 27 27 27 27 26 26 27 27 27 27 28 28 29 30 30 30 31 32 33 33 34 35
21 21 21 21 21 22 22 22 22 23 23 24 24 25 25 25 26 26 27 27 28 28 28 28 28 28 28 28 28 28 28 28 29 29 30 30 31 31 32 32 33 34 35 36
20 20 20 20 20 20 20 21 21 21 22 22 23 24 24 24 25 25 26 26 27 28 28 28 28 29 29 29 29 30 30 30 30 30 31 31 31 32 32 33 34 35 36 36
18 18 19 19 19 19 19 20 20 20 21 22 22 23 24 24 24 25 25 26 27 27 28 28 29 29 30 30 30 31 31 31 31 31 32 32 33 33 33 34 35 35 36 37
17 17 18 18 18 18 19 20 20 20 21 21 22 22 23 24 24 24 25 26 26 27 28 28 29 30 30 30 31 31 31 31 31 32 33 33 34 34 34 35 35 36 37 37
18 17 18 18 18 19 19 20 20 21 21 22 22 23 23 23 24 24 25 26 26 26 27 28 29 29 30 30 31 31 31 31 32 32 33 34 34 34 35 35 36 37 37 38
19 19 19 19 20 20 20 21 22 22 23 23 23 24 24 24 25 25 26 26 26 27 28 28 29 29 30 30 31 31 31 32 33 33 34 34 35 35 35 36 37 38 38 39
20 21 21 21 22 22 22 22 22 22 23 24 24 25 26 26 27 27 27 27 27 28 28 29 29 29 30 30 31 32 32 33 33 34 34 35 35 36 36 37 38 38 39 39
21 21 22 22 22 22 23 23 24 24 24 24 25 26 26 27 27 28 28 29 29 29 30 30 30 31 31 32 33 33 34 34 34 35 35 35 36 36 37 37 38 38 38 39
Wind_Direction
222 222 222 223 224 226 226 227 229 232 233 233 233 232 233 233 234 235 236 238 240 242 244 247 250 253 256 259 261 264 267 269 271 274 278 282 285 288 292 296 298 300 302 305
225 225 224 223 224 226 225 227 229 231 232 233 233 231 232 233 235 237 238 240 242 245 246 248 251 254 256 259 261 265 267 269 272 276 280 283 285 288 292 296 299 301 305 308
228 228 227 226 226 226 225 225 227 228 229 229 230 231 233 235 237 239 241 243 245 247 249 251 253 255 257 259 261 264 268 271 274 277 280 283 286 289 292 295 299 302 306 309
230 228 229 227 227 226 225 225 228 229 228 228 230 232 234 236 239 241 243 245 247 249 250 252 253 255 257 258 261 266 270 272 274 277 280 283 287 290 292 295 299 303 307 311
231 231 229 226 227 226 226 227 228 229 230 230 232 233 234 237 240 243 244 246 247 249 250 251 253 254 255 259 264 268 271 272 274 277 281 284 287 289 292 296 300 303 306 309
232 233 233 227 229 229 228 228 228 230 231 232 234 236 237 239 242 244 245 246 247 249 249 251 253 254 256 261 266 269 271 272 274 278 282 285 287 289 292 297 300 304 305 307
233 233 233 232 232 232 231 230 230 232 233 234 236 238 239 242 244 246 247 247 247 248 249 251 253 255 258 262 266 270 271 274 276 279 282 284 287 290 293 296 300 303 305 307
235 235 236 236 236 236 237 234 234 235 235 236 238 240 242 244 246 248 247 247 248 249 251 252 254 256 260 263 266 270 273 276 278 280 282 284 287 290 293 296 299 302 304 305
239 240 240 240 239 238 238 237 237 237 237 239 240 242 244 246 248 247 247 248 249 251 253 254 256 259 262 264 267 272 275 277 279 281 282 284 288 291 293 296 299 301 303 305
243 243 242 241 241 241 241 241 240 240 241 242 243 245 246 248 248 248 248 250 251 253 256 258 260 262 264 265 269 273 275 277 279 281 282 284 288 291 293 296 299 301 304 306
245 245 244 243 243 243 243 243 243 243 245 247 247 247 248 248 249 249 250 252 253 255 258 260 262 264 265 266 269 272 275 277 279 281 282 285 288 291 294 297 299 301 304 306
246 247 246 244 244 245 245 245 245 246 247 248 249 249 250 249 250 250 251 252 254 256 259 261 263 264 265 267 269 271 273 276 279 281 283 285 288 292 295 297 299 301 304 305
248 248 248 247 246 246 246 246 247 248 248 249 249 249 250 249 250 251 253 253 254 257 259 261 263 265 267 267 269 271 273 275 278 280 283 286 289 291 294 297 299 302 304 305
249 249 249 249 248 248 247 248 249 249 249 249 249 250 250 250 250 252 253 254 256 258 260 262 263 265 266 268 269 270 272 275 278 281 284 286 288 291 294 297 299 301 304 305
249 251 251 250 251 251 250 250 250 250 250 250 250 250 251 251 252 253 254 255 255 257 260 262 263 265 266 268 269 271 272 275 278 281 284 286 288 291 294 296 299 301 303 305
249 251 252 252 252 253 253 253 252 251 251 250 250 250 251 252 253 254 254 255 256 257 259 261 263 265 266 267 269 271 273 275 278 281 284 286 288 291 294 296 298 301 303 305
249 251 253 254 254 254 255 255 254 253 252 251 251 252 253 253 253 254 254 255 257 258 259 261 262 264 265 266 269 272 274 276 279 281 284 287 289 291 294 296 298 300 303 305
251 253 255 256 256 256 256 256 256 255 254 253 253 253 253 253 254 254 254 255 257 258 258 260 262 263 265 266 269 272 274 277 279 281 284 287 290 292 294 296 298 300 302 304
252 254 256 257 257 257 258 258 257 257 256 255 254 254 254 254 255 254 254 255 256 257 258 259 261 263 265 266 269 272 275 277 279 281 284 287 289 291 294 296 298 300 302 304
255 256 257 257 257 257 258 258 259 259 257 255 255 254 255 256 256 256 256 256 256 257 258 259 261 263 265 267 269 272 274 277 279 281 284 287 289 291 293 296 298 300 302 304
254 255 256 257 257 258 258 259 259 259 259 258 257 256 257 257 257 257 257 257 258 258 259 260 262 264 266 268 269 271 274 276 278 280 283 286 289 292 294 296 298 300 301 303
254 255 256 257 257 257 258 259 260 261 260 259 259 259 258 258 258 259 259 259 260 260 261 262 263 265 266 268 270 272 273 275 276 279 281 285 288 291 294 296 298 300 302 303
255 256 257 258 259 259 260 261 262 262 262 261 261 261 261 260 261 261 262 261 262 262 263 264 265 266 267 269 270 272 273 274 276 278 281 284 287 290 293 296 298 300 302 304
253 255 257 260 262 264 265 265 266 266 265 264 263 264 264 264 263 263 264 264 264 264 265 266 266 267 268 269 270 272 274 275 277 278 281 284 287 289 292 295 297 299 301 303
254 256 259 262 265 267 268 269 270 269 268 267 266 266 266 266 266 265 265 266 266 267 267 268 268 269 270 270 272 273 275 276 277 278 280 284 286 289 292 294 296 299 301 303
257 259 261 264 267 269 271 273 274 274 273 272 270 269 268 268 267 267 267 267 268 269 269 269 270 271 272 272 273 275 277 277 278 279 280 283 286 289 291 294 296 298 300 302
260 261 263 265 268 270 273 274 275 275 275 274 273 271 271 270 270 269 269 269 270 271 272 272 272 273 273 274 275 276 277 278 278 280 281 284 286 289 291 294 296 299 300 303
Height
5614 5616 5618 5621 5624 5626 5630 5633 5636 5639 5642 5645 5648 5651 5653 5656 5659 5662 5665 5667 5670 5673 5675 5678 5680 5682 5683 5684 5685 5686 5686 5686 5686 5686 5685 5684 5682 5680 5677 5674 5671 5667 5662 5657
5611 5613 5615 5618 5620 5623 5626 5629 5632 5635 5638 5641 5644 5646 5649 5652 5654 5657 5659 5662 5664 5667 5669 5671 5673 5674 5676 5677 5678 5678 5679 5679 5678 5678 5677 5676 5674 5672 5669 5667 5663 5659 5654 5649
5610 5611 5613 5616 5618 5620 5623 5626 5628 5631 5635 5637 5640 5642 5645 5647 5650 5652 5654 5657 5659 5661 5663 5665 5666 5668 5669 5670 5671 5671 5671 5671 5671 5670 5669 5668 5666 5664 5662 5659 5656 5652 5647 5643
5607 5609 5611 5616 5615 5617 5620 5622 5625 5628 5630 5633 5636 5638 5640 5643 5645 5647 5650 5652 5653 5655 5657 5658 5660 5661 5662 5663 5664 5664 5664 5664 5664 5663 5662 5661 5659 5657 5655 5652 5649 5645 5641 5637
5605 5606 5608 5612 5613 5614 5617 5619 5622 5624 5627 5629 5632 5634 5636 5638 5641 5643 5645 5646 5648 5649 5651 5652 5653 5655 5656 5657 5657 5658 5658 5658 5657 5657 5655 5654 5652 5650 5648 5645 5642 5639 5635 5631
5602 5604 5606 5610 5610 5611 5615 5616 5619 5621 5623 5626 5628 5630 5633 5634 5636 5638 5639 5641 5642 5644 5645 5646 5648 5649 5650 5651 5651 5651 5651 5651 5651 5650 5649 5647 5646 5644 5642 5639 5636 5633 5630 5626
5599 5601 5603 5606 5607 5609 5613 5615 5616 5617 5620 5622 5624 5626 5628 5630 5631 5633 5634 5636 5637 5638 5640 5641 5642 5643 5644 5645 5645 5645 5645 5645 5644 5644 5643 5641 5640 5638 5636 5633 5631 5627 5624 5621
5596 5598 5603 5602 5604 5606 5609 5610 5612 5614 5616 5618 5619 5621 5623 5625 5626 5628 5629 5631 5632 5633 5635 5636 5637 5638 5638 5639 5639 5639 5639 5639 5638 5637 5636 5635 5634 5632 5630 5628 5625 5622 5619 5616
5594 5597 5597 5598 5600 5602 5604 5606 5608 5610 5611 5613 5615 5617 5618 5620 5622 5623 5624 5626 5627 5628 5629 5630 5631 5632 5633 5633 5634 5634 5633 5633 5632 5631 5630 5629 5628 5626 5624 5622 5619 5616 5613 5610
5589 5591 5592 5594 5596 5598 5599 5601 5603 5605 5607 5609 5610 5612 5614 5615 5617 5618 5620 5621 5622 5623 5624 5625 5626 5626 5627 5628 5628 5628 5628 5627 5626 5626 5625 5624 5622 5621 5619 5616 5614 5611 5608 5605
5584 5586 5588 5590 5591 5593 5595 5597 5598 5600 5602 5604 5605 5607 5609 5610 5611 5613 5614 5616 5617 5618 5619 5620 5620 5621 5621 5622 5622 5622 5622 5621 5621 5620 5619 5618 5616 5615 5612 5610 5607 5605 5602 5598
5580 5581 5583 5585 5586 5588 5590 5591 5593 5595 5597 5598 5600 5602 5603 5605 5606 5607 5609 5610 5611 5612 5613 5614 5615 5615 5616 5616 5616 5616 5616 5616 5615 5614 5613 5612 5610 5608 5606 5604 5601 5598 5595 5592
5574 5575 5577 5579 5581 5582 5584 5586 5587 5589 5591 5592 5594 5596 5597 5599 5600 5602 5603 5604 5605 5606 5607 5608 5609 5609 5610 5610 5610 5610 5610 5609 5609 5608 5607 5605 5604 5602 5600 5597 5594 5591 5588 5585
5568 5570 5571 5573 5575 5576 5578 5580 5581 5583 5584 5586 5588 5589 5591 5592 5594 5595 5597 5598 5599 5600 5601 5602 5602 5603 5603 5603 5604 5604 5603 5603 5602 5601 5600 5599 5597 5595 5593 5590 5588 5584 5581 5577
5562 5564 5566 5567 5569 5570 5572 5573 5575 5576 5578 5579 5581 5583 5584 5586 5587 5589 5590 5591 5592 5593 5594 5595 5596 5596 5596 5597 5597 5597 5596 5596 5595 5595 5593 5592 5590 5588 5586 5583 5580 5577 5573 5570
5556 5558 5559 5561 5562 5563 5565 5566 5568 5569 5571 5572 5574 5576 5577 5579 5580 5581 5583 5584 5585 5586 5587 5588 5588 5589 5589 5589 5590 5590 5589 5589 5588 5587 5586 5584 5582 5580 5578 5575 5572 5569 5566 5562
5550 5552 5553 5555 5556 5557 5558 5559 5561 5562 5563 5565 5567 5568 5570 5571 5573 5574 5575 5576 5578 5579 5580 5580 5581 5581 5582 5582 5582 5582 5582 5581 5581 5580 5578 5577 5575 5573 5570 5567 5564 5561 5558 5554
5544 5546 5547 5548 5549 5550 5551 5552 5554 5555 5556 5557 5559 5560 5562 5563 5565 5566 5567 5569 5570 5571 5572 5572 5573 5574 5574 5574 5574 5574 5574 5573 5573 5572 5570 5569 5567 5564 5562 5559 5556 5553 5549 5545
5538 5539 5541 5542 5543 5544 5545 5546 5547 5548 5549 5550 5551 5553 5554 5555 5557 5558 5559 5560 5562 5563 5564 5564 5565 5566 5566 5566 5566 5566 5566 5565 5564 5563 5562 5560 5558 5556 5553 5550 5547 5544 5540 5536
5532 5533 5534 5535 5536 5537 5538 5539 5540 5541 5541 5542 5544 5545 5546 5547 5549 5550 5551 5552 5553 5554 5555 5556 5556 5557 5558 5558 5558 5558 5557 5557 5556 5555 5553 5552 5550 5547 5544 5542 5538 5535 5531 5527
5526 5527 5528 5529 5530 5531 5532 5532 5533 5534 5535 5535 5536 5538 5539 5540 5541 5542 5543 5544 5545 5546 5546 5547 5548 5548 5549 5549 5549 5549 5549 5548 5547 5546 5545 5543 5541 5538 5536 5533 5529 5526 5522 5518
5521 5522 5523 5523 5524 5525 5525 5526 5527 5527 5528 5529 5529 5530 5531 5532 5533 5534 5535 5536 5536 5537 5538 5538 5539 5539 5540 5540 5540 5540 5539 5539 5538 5537 5535 5534 5532 5529 5527 5524 5520 5517 5513 5509
5515 5516 5517 5518 5518 5519 5520 5520 5521 5521 5522 5522 5523 5523 5524 5525 5525 5526 5527 5528 5528 5529 5529 5530 5530 5530 5530 5531 5531 5530 5530 5529 5528 5527 5526 5524 5522 5520 5517 5514 5511 5507 5503 5499
5510 5511 5512 5512 5513 5513 5514 5514 5514 5515 5515 5516 5516 5516 5517 5517 5518 5518 5519 5519 5520 5520 5520 5521 5521 5521 5521 5521 5521 5521 5520 5519 5518 5517 5516 5514 5512 5510 5507 5505 5501 5498 5494 5490
5505 5505 5506 5507 5507 5507 5508 5508 5508 5508 5509 5509 5509 5509 5510 5510 5510 5511 5511 5511 5511 5511 5511 5511 5512 5512 5512 5511 5511 5511 5510 5509 5508 5507 5506 5504 5502 5500 5497 5494 5491 5488 5484 5480
5499 5499 5500 5500 5501 5501 5501 5501 5501 5501 5501 5501 5501 5501 5502 5502 5502 5502 5502 5503 5503 5503 5502 5502 5502 5502 5502 5501 5501 5500 5500 5499 5498 5496 5495 5493 5492 5489 5487 5484 5481 5478 5474 5470
5492 5493 5493 5494 5494 5494 5494 5494 5494 5494 5493 5493 5493 5493 5493 5493 5493 5493 5493 5493 5493 5493 5493 5493 5492 5492 5491 5491 5490 5490 5489 5488 5487 5486 5484 5483 5481 5479 5476 5474 5471 5467 5464 5460